ONEWEB-0709 (55172 NORAD) Tracking and Keplerian Element Data

This shows tracking and keplerian element data for the satellite.

Feedback or suggestion? Click here.




ElementValue
Catalog55172
NameONEWEB-0709
Epoch Orbit130
Epoch Day13.91667824
Epoch Year2023
RAAN284.1415
Inclination86.5092
Eccentricity0.0008735
Argument of Perigee200.8092
Mean Anonmoly60.4092
Mean Motion14.90628959
Decay Rate-0.0004849
L11 55172U 23004AJ 23013.91667824 -.00048490 00000+0 -49929-2 0 9992
L22 55172 86.5092 284.1415 0008735 200.8092 60.4092 14.90628959 1309



Live tracking and technical data element details for ONEWEB-0709 (NORAD 55172). ONEWEB-0709 can be tracked NOW for your location showing map with azimuth and elevation plus other details from your city location.







IsCatalogInMostPopularTable: catalog: 55172, numindb: 3
Update: records affected: 1



GetName: 55172 ONEWEB-0709

Hit Count: updated at: Tue, 07 Feb 2023 15:10:58 GMT